COSMOS 2535 DEB, 44631

Orbit data source: Space-Track

COSMOS 2535 DEB, 44631 is space debris in SSO originally from a launch on Wed, 10 Jul 2019 UTC launched from the Plesetsk Missile And Space Complex (PKMTR). Debris objects in space refer to the collection of defunct objects orbiting the Earth. Examples of debris include non-operational satellites, rocket bodies, and fragments generated from explosions, collisions, or faulty payload assembly.

Loading next visibility...
COSMOS 2535 DEB details
Identifier
44631, 2019-039H
Orbit
SSO
Last TLE update15 hours ago
Origin
Flag of CISVVKO VKS (CIS)
ManufacturerUnknown
MissionSpacecraft
Bus & MotorUnknown
MassUnknown
Launch date (UTC)
2019-07-10 (5 years ago)
Launch vehicleUnknown
Launch site
Plesetsk Missile And Space Complex (PKMTR)
Object type
Payload
Rocket body
Debris
Shape & HBRUnknown
Radar Cross SectionSmall (<0.1 m²)

Expand to show TLE details & history

TLE from 15 hours ago
0 COSMOS 2535 DEB
1 44631U 19039H   24361.06728328  .00014333  00000-0  10584-2 0  9996
2 44631  97.5913  37.6552 0024629 103.4739 256.9233 15.03105670283799
Epoch: 2024-12-26T01:36Z
Definitive object data (Epoch: 2024-12-26T01:36:53.275Z)
Latitude-0.00004°
Longitude-81.61878°
Altitude564.294 km
Speed7.577 km/s
True Right ascension02h 30m 37s
True Declination0° 00' 00"
Sunlit
Object was in full shadow at TLE epoch
Visualization TLE readout
Latitude-55.62365°
Longitude87.83926°
Altitude590.899 km
Speed7.557 km/s
Apparent Right ascension07h 58m 43s
Apparent Declination-72° 30' 18"
Sunlit
Object is in daylight
Visualization observer readout
Local Sidereal Time16:24:37
Azimuth201.4° SSW
Elevation-48.508°
Doppler factor1
Orbital elements
Apogee altitude571.397 km
Perigee altitude537.249 km
Semi-major axis6,932.46 km
Eccentricity0.0024629
Inclination97.5913°
RAAN37.6552°
Arg. of periapsis103.4739°
True anomaly256.64858°
Mean anomaly256.9233°
Eccentric anomaly256.78592°
Mean motion3.76021 °/min
BSTAR0.0010584
Orbital period95.74 mins
Loading maneuver chart data...

COSMOS 2535 DEB Visibility forecast

Observer location: undefined°, undefined

Span
Click to sort rows by Start time (UTC) header in descending order
Start Az.
Max El. time (UTC)
Max El. Az.
Max El.
End time (UTC)
End Az.
4 mins2024-12-27 01:44:21.339Z103.325° ESE2024-12-27 01:46:21.339Z68.597° E17.059°2024-12-27 01:48:21.339Z33.213° NE
5 mins2024-12-27 03:19:21.339Z219.207° SW2024-12-27 03:21:21.339Z272.746° WNW27.21°2024-12-27 03:24:21.339Z325.358° NNW
5 mins2024-12-27 14:57:21.339Z54.665° ENE2024-12-27 14:59:21.339Z106.701° ESE26.162°2024-12-27 15:02:21.339Z158.338° S
4 mins2024-12-27 16:32:21.339Z317.879° NNW2024-12-27 16:33:21.339Z299.071° NW17.383°2024-12-27 16:36:21.339Z248.241° W
|